Time,TemperatureF,DewpointF,PressureIn,WindDirection,WindDirectionDegrees,WindSpeedMPH,WindSpeedGustMPH,Humidity,HourlyPrecipIn,Conditions,Clouds,dailyrainin,SoftwareType,DateUTC
2013-05-05 00:01:00,59.0,45.2,29.92,East,88,0.0,0.0,60,0.00,,---,0.00,VWS V14.01,2013-05-05 04:01:00,
2013-05-05 00:06:00,58.4,44.6,29.92,East,91,0.0,1.0,60,0.00,,---,0.00,VWS V14.01,2013-05-05 04:06:00,
2013-05-05 00:11:00,58.4,44.1,29.92,East,91,0.0,0.0,59,0.00,,---,0.00,VWS V14.01,2013-05-05 04:11:00,
2013-05-05 00:16:00,58.4,44.6,29.92,East,91,0.0,0.0,60,0.00,,---,0.00,VWS V14.01,2013-05-05 04:16:00,
2013-05-05 00:21:00,58.5,44.7,29.92,East,91,0.0,0.0,60,0.00,,---,0.00,VWS V14.01,2013-05-05 04:21:00,
2013-05-05 00:26:00,58.2,44.8,29.92,East,91,0.0,0.0,61,0.00,,---,0.00,VWS V14.01,2013-05-05 04:26:00,
2013-05-05 00:31:00,57.8,44.5,29.92,East,91,0.0,0.0,61,0.00,,---,0.00,VWS V14.01,2013-05-05 04:31:00,
2013-05-05 00:36:00,58.0,44.2,29.92,East,91,0.0,1.0,60,0.00,,---,0.00,VWS V14.01,2013-05-05 04:36:00,
2013-05-05 00:41:00,58.2,44.0,29.92,East,92,0.0,0.0,59,0.00,,---,0.00,VWS V14.01,2013-05-05 04:41:00,
2013-05-05 00:46:00,58.5,44.2,29.92,East,92,0.0,1.0,59,0.00,,---,0.00,VWS V14.01,2013-05-05 04:46:00,
2013-05-05 00:51:00,58.0,44.6,29.92,East,92,0.0,0.0,61,0.00,,---,0.00,VWS V14.01,2013-05-05 04:51:00,
2013-05-05 00:56:00,57.7,44.4,29.92,East,92,1.0,1.0,61,0.00,,---,0.00,VWS V14.01,2013-05-05 04:56:00,
2013-05-05 01:01:00,57.6,44.3,29.92,East,92,0.0,0.0,61,0.00,,---,0.00,VWS V14.01,2013-05-05 05:01:00,
2013-05-05 01:06:00,57.2,44.3,29.92,East,92,0.0,0.0,62,0.00,,---,0.00,VWS V14.01,2013-05-05 05:06:00,
2013-05-05 01:11:00,57.1,44.2,29.92,East,92,0.0,0.0,62,0.00,,---,0.00,VWS V14.01,2013-05-05 05:11:00,
2013-05-05 01:16:00,57.2,44.3,29.92,East,92,0.0,0.0,62,0.00,,---,0.00,VWS V14.01,2013-05-05 05:16:00,
2013-05-05 01:21:00,57.0,44.1,29.92,East,92,0.0,0.0,62,0.00,,---,0.00,VWS V14.01,2013-05-05 05:21:00,
2013-05-05 01:26:00,57.1,44.2,29.92,East,92,0.0,0.0,62,0.00,,---,0.00,VWS V14.01,2013-05-05 05:26:00,
2013-05-05 01:31:00,57.1,44.2,29.92,East,92,0.0,0.0,62,0.00,,---,0.00,VWS V14.01,2013-05-05 05:31:00,
2013-05-05 01:36:00,56.9,44.0,29.92,East,92,1.0,1.0,62,0.00,,---,0.00,VWS V14.01,2013-05-05 05:36:00,
2013-05-05 01:41:00,57.1,44.2,29.92,East,93,0.0,0.0,62,0.00,,---,0.00,VWS V14.01,2013-05-05 05:41:00,
2013-05-05 01:46:00,57.0,44.1,29.92,East,93,0.0,0.0,62,0.00,,---,0.00,VWS V14.01,2013-05-05 05:46:00,
2013-05-05 01:51:00,56.7,44.3,29.91,East,93,0.0,1.0,63,0.00,,---,0.00,VWS V14.01,2013-05-05 05:51:00,
2013-05-05 01:56:00,56.4,44.0,29.91,East,93,0.0,0.0,63,0.00,,---,0.00,VWS V14.01,2013-05-05 05:56:00,
2013-05-05 02:01:00,56.3,44.3,29.91,East,93,0.0,0.0,64,0.00,,---,0.00,VWS V14.01,2013-05-05 06:01:00,
2013-05-05 02:06:00,56.2,44.2,29.91,East,93,0.0,0.0,64,0.00,,---,0.00,VWS V14.01,2013-05-05 06:06:00,
2013-05-05 02:11:00,56.0,44.4,29.91,East,93,0.0,0.0,65,0.00,,---,0.00,VWS V14.01,2013-05-05 06:11:00,
2013-05-05 02:16:00,55.8,44.2,29.91,East,93,0.0,0.0,65,0.00,,---,0.00,VWS V14.01,2013-05-05 06:16:00,
2013-05-05 02:21:00,55.7,44.1,29.91,East,93,0.0,0.0,65,0.00,,---,0.00,VWS V14.01,2013-05-05 06:21:00,
2013-05-05 02:26:00,55.4,44.2,29.91,East,93,0.0,0.0,66,0.00,,---,0.00,VWS V14.01,2013-05-05 06:26:00,
2013-05-05 02:31:00,55.3,44.2,29.91,East,93,0.0,0.0,66,0.00,,---,0.00,VWS V14.01,2013-05-05 06:31:00,
2013-05-05 02:36:00,55.4,44.2,29.91,East,93,0.0,0.0,66,0.00,,---,0.00,VWS V14.01,2013-05-05 06:36:00,
2013-05-05 02:41:00,55.4,44.2,29.91,East,93,0.0,0.0,66,0.00,,---,0.00,VWS V14.01,2013-05-05 06:41:00,
2013-05-05 02:46:00,55.3,44.2,29.91,East,93,0.0,0.0,66,0.00,,---,0.00,VWS V14.01,2013-05-05 06:46:00,
2013-05-05 02:51:00,55.1,44.0,29.90,East,91,0.0,0.0,66,0.00,,---,0.00,VWS V14.01,2013-05-05 06:51:00,
2013-05-05 02:56:00,55.0,44.3,29.90,East,91,0.0,0.0,67,0.00,,---,0.00,VWS V14.01,2013-05-05 06:56:00,
2013-05-05 03:01:00,55.0,44.3,29.90,East,91,0.0,0.0,67,0.00,,---,0.00,VWS V14.01,2013-05-05 07:01:00,
2013-05-05 03:06:00,54.9,44.2,29.90,East,91,0.0,0.0,67,0.00,,---,0.00,VWS V14.01,2013-05-05 07:06:00,
2013-05-05 03:11:00,54.9,44.2,29.90,East,91,0.0,0.0,67,0.00,,---,0.00,VWS V14.01,2013-05-05 07:11:00,
2013-05-05 03:16:00,54.5,43.8,29.90,East,91,0.0,0.0,67,0.00,,---,0.00,VWS V14.01,2013-05-05 07:16:00,
2013-05-05 03:21:00,54.3,44.0,29.89,East,91,0.0,0.0,68,0.00,,---,0.00,VWS V14.01,2013-05-05 07:21:00,
2013-05-05 03:26:00,54.2,43.9,29.89,East,91,0.0,0.0,68,0.00,,---,0.00,VWS V14.01,2013-05-05 07:26:00,
2013-05-05 03:31:00,54.0,43.7,29.89,East,91,0.0,0.0,68,0.00,,---,0.00,VWS V14.01,2013-05-05 07:31:00,
2013-05-05 03:36:00,54.2,43.9,29.89,East,91,0.0,0.0,68,0.00,,---,0.00,VWS V14.01,2013-05-05 07:36:00,
2013-05-05 03:41:00,54.0,43.7,29.89,East,91,0.0,0.0,68,0.00,,---,0.00,VWS V14.01,2013-05-05 07:41:00,
2013-05-05 03:46:00,54.0,43.7,29.89,East,91,0.0,0.0,68,0.00,,---,0.00,VWS V14.01,2013-05-05 07:46:00,
2013-05-05 03:51:00,53.9,43.6,29.89,East,91,0.0,0.0,68,0.00,,---,0.00,VWS V14.01,2013-05-05 07:51:00,
2013-05-05 03:56:00,53.7,43.8,29.89,East,91,0.0,0.0,69,0.00,,---,0.00,VWS V14.01,2013-05-05 07:56:00,
2013-05-05 04:01:00,53.5,43.6,29.89,East,91,0.0,0.0,69,0.00,,---,0.00,VWS V14.01,2013-05-05 08:01:00,
2013-05-05 04:06:00,53.5,43.6,29.89,East,91,0.0,0.0,69,0.00,,---,0.00,VWS V14.01,2013-05-05 08:06:00,
2013-05-05 04:11:00,53.6,43.7,29.89,East,91,0.0,0.0,69,0.00,,---,0.00,VWS V14.01,2013-05-05 08:11:00,
2013-05-05 04:16:00,53.8,43.5,29.89,East,91,0.0,1.0,68,0.00,,---,0.00,VWS V14.01,2013-05-05 08:16:00,
2013-05-05 04:21:00,53.7,43.4,29.89,East,91,0.0,1.0,68,0.00,,---,0.00,VWS V14.01,2013-05-05 08:21:00,
2013-05-05 04:26:00,53.8,43.1,29.89,East,91,0.0,0.0,67,0.00,,---,0.00,VWS V14.01,2013-05-05 08:26:00,
2013-05-05 04:31:00,53.6,43.3,29.89,East,91,0.0,0.0,68,0.00,,---,0.00,VWS V14.01,2013-05-05 08:31:00,
2013-05-05 04:36:00,53.3,43.0,29.89,East,91,0.0,0.0,68,0.00,,---,0.00,VWS V14.01,2013-05-05 08:36:00,
2013-05-05 04:41:00,53.2,42.9,29.89,East,91,0.0,0.0,68,0.00,,---,0.00,VWS V14.01,2013-05-05 08:41:00,
2013-05-05 04:46:00,53.1,43.2,29.89,East,91,0.0,0.0,69,0.00,,---,0.00,VWS V14.01,2013-05-05 08:46:00,
2013-05-05 04:51:00,53.0,43.1,29.89,East,91,0.0,0.0,69,0.00,,---,0.00,VWS V14.01,2013-05-05 08:51:00,
2013-05-05 04:56:00,52.9,43.0,29.89,East,91,0.0,0.0,69,0.00,,---,0.00,VWS V14.01,2013-05-05 08:56:00,
2013-05-05 05:01:00,53.0,43.1,29.89,East,91,0.0,0.0,69,0.00,,---,0.00,VWS V14.01,2013-05-05 09:01:00,
2013-05-05 05:06:00,53.1,43.2,29.89,East,91,0.0,0.0,69,0.00,,---,0.00,VWS V14.01,2013-05-05 09:06:00,
2013-05-05 05:11:00,53.2,42.9,29.89,East,91,0.0,0.0,68,0.00,,---,0.00,VWS V14.01,2013-05-05 09:11:00,
2013-05-05 05:16:00,53.0,43.1,29.89,East,91,0.0,0.0,69,0.00,,---,0.00,VWS V14.01,2013-05-05 09:16:00,
2013-05-05 05:21:00,52.6,43.1,29.89,East,91,0.0,0.0,70,0.00,,---,0.00,VWS V14.01,2013-05-05 09:21:00,
2013-05-05 05:26:00,52.3,42.8,29.89,East,91,0.0,0.0,70,0.00,,---,0.00,VWS V14.01,2013-05-05 09:26:00,
2013-05-05 05:31:00,52.1,42.6,29.89,East,91,0.0,0.0,70,0.00,,---,0.00,VWS V14.01,2013-05-05 09:31:00,
2013-05-05 05:36:00,52.3,42.8,29.89,East,91,0.0,0.0,70,0.00,,---,0.00,VWS V14.01,2013-05-05 09:36:00,
2013-05-05 05:41:00,52.3,42.8,29.89,East,91,0.0,0.0,70,0.00,,---,0.00,VWS V14.01,2013-05-05 09:41:00,
2013-05-05 05:46:00,52.2,43.1,29.89,East,91,0.0,0.0,71,0.00,,---,0.00,VWS V14.01,2013-05-05 09:46:00,
2013-05-05 05:51:00,52.6,43.1,29.89,East,91,0.0,0.0,70,0.00,,---,0.00,VWS V14.01,2013-05-05 09:51:00,
2013-05-05 05:56:00,52.6,43.5,29.89,East,91,0.0,0.0,71,0.00,,---,0.00,VWS V14.01,2013-05-05 09:56:00,
2013-05-05 06:01:00,52.4,43.3,29.89,East,91,0.0,0.0,71,0.00,,---,0.00,VWS V14.01,2013-05-05 10:01:00,
2013-05-05 06:06:00,52.2,43.5,29.89,East,91,0.0,0.0,72,0.00,,---,0.00,VWS V14.01,2013-05-05 10:06:00,
2013-05-05 06:11:00,52.6,43.5,29.89,East,91,0.0,0.0,71,0.00,,---,0.00,VWS V14.01,2013-05-05 10:11:00,
2013-05-05 06:16:00,52.8,43.3,29.89,East,91,0.0,0.0,70,0.00,,---,0.00,VWS V14.01,2013-05-05 10:16:00,
2013-05-05 06:20:00,52.9,43.4,29.90,East,91,0.0,0.0,70,0.00,,---,0.00,VWS V14.01,2013-05-05 10:20:00,
2013-05-05 06:25:00,53.0,43.5,29.90,East,91,0.0,0.0,70,0.00,,---,0.00,VWS V14.01,2013-05-05 10:25:00,
2013-05-05 06:30:00,52.9,43.4,29.90,East,91,0.0,0.0,70,0.00,,---,0.00,VWS V14.01,2013-05-05 10:30:00,
2013-05-05 06:35:00,52.6,43.5,29.90,East,91,0.0,0.0,71,0.00,,---,0.00,VWS V14.01,2013-05-05 10:35:00,
2013-05-05 06:40:00,52.2,43.5,29.90,East,91,0.0,0.0,72,0.00,,---,0.00,VWS V14.01,2013-05-05 10:40:00,
2013-05-05 06:45:00,52.0,43.3,29.90,East,91,0.0,0.0,72,0.00,,---,0.00,VWS V14.01,2013-05-05 10:45:00,
2013-05-05 06:50:00,52.0,43.6,29.90,East,91,0.0,0.0,73,0.00,,---,0.00,VWS V14.01,2013-05-05 10:50:00,
2013-05-05 06:55:00,51.8,43.4,29.90,East,91,0.0,0.0,73,0.00,,---,0.00,VWS V14.01,2013-05-05 10:55:00,
2013-05-05 07:00:00,51.8,43.4,29.90,East,91,0.0,0.0,73,0.00,,---,0.00,VWS V14.01,2013-05-05 11:00:00,
2013-05-05 07:05:00,51.9,43.9,29.91,East,91,0.0,0.0,74,0.00,,---,0.00,VWS V14.01,2013-05-05 11:05:00,
2013-05-05 07:10:00,51.9,43.9,29.91,East,91,0.0,0.0,74,0.00,,---,0.00,VWS V14.01,2013-05-05 11:10:00,
2013-05-05 07:15:00,52.1,44.1,29.91,East,91,0.0,0.0,74,0.00,,---,0.00,VWS V14.01,2013-05-05 11:15:00,
2013-05-05 07:20:00,52.1,44.1,29.91,East,93,0.0,0.0,74,0.00,,---,0.00,VWS V14.01,2013-05-05 11:20:00,
2013-05-05 07:25:00,52.6,44.6,29.91,East,93,0.0,0.0,74,0.00,,---,0.00,VWS V14.01,2013-05-05 11:25:00,
2013-05-05 07:30:00,52.9,44.8,29.91,East,93,0.0,0.0,74,0.00,,---,0.00,VWS V14.01,2013-05-05 11:30:00,
2013-05-05 07:35:00,53.6,45.5,29.91,East,93,0.0,0.0,74,0.00,,---,0.00,VWS V14.01,2013-05-05 11:35:00,
2013-05-05 07:40:00,54.2,45.4,29.91,East,93,0.0,0.0,72,0.00,,---,0.00,VWS V14.01,2013-05-05 11:40:00,
2013-05-05 07:45:00,54.7,45.5,29.91,East,93,0.0,0.0,71,0.00,,---,0.00,VWS V14.01,2013-05-05 11:45:00,
2013-05-05 07:50:00,55.3,45.7,29.91,East,92,0.0,0.0,70,0.00,,---,0.00,VWS V14.01,2013-05-05 11:50:00,
2013-05-05 07:55:00,55.7,45.7,29.91,East,94,0.0,0.0,69,0.00,,---,0.00,VWS V14.01,2013-05-05 11:55:00,
2013-05-05 08:00:00,56.1,45.7,29.91,East,87,1.0,1.0,68,0.00,,---,0.00,VWS V14.01,2013-05-05 12:00:00,
2013-05-05 08:05:00,56.1,45.7,29.91,East,87,1.0,1.0,68,0.00,,---,0.00,VWS V14.01,2013-05-05 12:05:00,
2013-05-05 08:10:00,56.1,45.7,29.91,East,95,0.0,0.0,68,0.00,,---,0.00,VWS V14.01,2013-05-05 12:10:00,
2013-05-05 08:15:00,56.3,45.9,29.91,ENE,77,0.0,0.0,68,0.00,,---,0.00,VWS V14.01,2013-05-05 12:15:00,
2013-05-05 08:20:00,56.6,45.8,29.91,East,79,1.0,6.0,67,0.00,,---,0.00,VWS V14.01,2013-05-05 12:20:00,
2013-05-05 08:25:00,56.7,46.3,29.91,ESE,108,0.0,3.0,68,0.00,,---,0.00,VWS V14.01,2013-05-05 12:25:00,
2013-05-05 08:30:00,57.0,46.6,29.91,East,91,1.0,3.0,68,0.00,,---,0.00,VWS V14.01,2013-05-05 12:30:00,
2013-05-05 08:35:00,57.4,46.9,29.91,ESE,122,4.0,4.0,68,0.00,,---,0.00,VWS V14.01,2013-05-05 12:35:00,
2013-05-05 08:40:00,57.9,46.6,29.91,ESE,104,0.0,4.0,66,0.00,,---,0.00,VWS V14.01,2013-05-05 12:40:00,
2013-05-05 08:45:00,58.1,46.8,29.91,East,88,0.0,2.0,66,0.00,,---,0.00,VWS V14.01,2013-05-05 12:45:00,
2013-05-05 08:50:00,58.1,46.4,29.91,East,82,1.0,3.0,65,0.00,,---,0.00,VWS V14.01,2013-05-05 12:50:00,
2013-05-05 08:55:00,58.2,46.5,29.91,East,98,0.0,3.0,65,0.00,,---,0.00,VWS V14.01,2013-05-05 12:55:00,
2013-05-05 09:00:00,58.6,46.9,29.91,East,86,2.0,4.0,65,0.00,,---,0.00,VWS V14.01,2013-05-05 13:00:00,
2013-05-05 09:05:00,58.7,46.6,29.91,East,88,1.0,5.0,64,0.00,,---,0.00,VWS V14.01,2013-05-05 13:05:00,
2013-05-05 09:10:00,59.1,47.0,29.91,East,97,0.0,4.0,64,0.00,,---,0.00,VWS V14.01,2013-05-05 13:10:00,
2013-05-05 09:15:00,59.8,47.6,29.91,SE,131,1.0,3.0,64,0.00,,---,0.00,VWS V14.01,2013-05-05 13:15:00,
2013-05-05 09:20:00,60.3,47.7,29.92,ESE,120,2.0,3.0,63,0.00,,---,0.00,VWS V14.01,2013-05-05 13:20:00,
2013-05-05 09:25:00,60.8,48.1,29.92,ESE,107,1.0,2.0,63,0.00,,---,0.00,VWS V14.01,2013-05-05 13:25:00,
2013-05-05 09:30:00,61.1,48.0,29.92,ESE,115,1.0,6.0,62,0.00,,---,0.00,VWS V14.01,2013-05-05 13:30:00,
2013-05-05 09:35:00,61.5,47.9,29.92,East,84,0.0,2.0,61,0.00,,---,0.00,VWS V14.01,2013-05-05 13:35:00,
2013-05-05 09:40:00,61.4,47.4,29.92,ENE,78,0.0,4.0,60,0.00,,---,0.00,VWS V14.01,2013-05-05 13:40:00,
2013-05-05 09:45:00,61.4,48.3,29.92,East,79,1.0,4.0,62,0.00,,---,0.00,VWS V14.01,2013-05-05 13:45:00,
2013-05-05 09:50:00,62.1,48.5,29.92,East,82,0.0,2.0,61,0.00,,---,0.00,VWS V14.01,2013-05-05 13:50:00,
2013-05-05 09:55:00,62.7,48.6,29.92,East,89,1.0,2.0,60,0.00,,---,0.00,VWS V14.01,2013-05-05 13:55:00,
2013-05-05 10:00:00,62.4,47.9,29.92,ESE,111,2.0,3.0,59,0.00,,---,0.00,VWS V14.01,2013-05-05 14:00:00,
2013-05-05 10:05:00,62.0,48.0,29.92,East,101,2.0,5.0,60,0.00,,---,0.00,VWS V14.01,2013-05-05 14:05:00,
2013-05-05 10:10:00,61.6,48.0,29.92,East,95,0.0,3.0,61,0.00,,---,0.00,VWS V14.01,2013-05-05 14:10:00,
2013-05-05 10:15:00,61.9,48.8,29.92,East,97,1.0,2.0,62,0.00,,---,0.00,VWS V14.01,2013-05-05 14:15:00,
2013-05-05 10:20:00,62.9,48.8,29.91,East,96,0.0,3.0,60,0.00,,---,0.00,VWS V14.01,2013-05-05 14:20:00,
2013-05-05 10:25:00,63.7,49.6,29.91,East,90,0.0,3.0,60,0.00,,---,0.00,VWS V14.01,2013-05-05 14:25:00,
2013-05-05 10:30:00,64.3,49.2,29.91,East,89,0.0,2.0,58,0.00,,---,0.00,VWS V14.01,2013-05-05 14:30:00,
2013-05-05 10:35:00,64.6,48.6,29.91,East,92,1.0,3.0,56,0.00,,---,0.00,VWS V14.01,2013-05-05 14:35:00,
2013-05-05 10:40:00,64.8,49.7,29.91,East,86,3.0,4.0,58,0.00,,---,0.00,VWS V14.01,2013-05-05 14:40:00,
2013-05-05 10:45:00,65.3,49.2,29.91,East,80,0.0,4.0,56,0.00,,---,0.00,VWS V14.01,2013-05-05 14:45:00,
2013-05-05 10:50:00,65.8,50.2,29.91,East,89,1.0,3.0,57,0.00,,---,0.00,VWS V14.01,2013-05-05 14:50:00,
2013-05-05 10:55:00,66.4,49.8,29.91,East,94,2.0,3.0,55,0.00,,---,0.00,VWS V14.01,2013-05-05 14:55:00,
2013-05-05 11:00:00,66.3,49.7,29.91,ESE,111,1.0,6.0,55,0.00,,---,0.00,VWS V14.01,2013-05-05 15:00:00,
2013-05-05 11:05:00,66.7,49.5,29.92,East,100,3.0,4.0,54,0.00,,---,0.00,VWS V14.01,2013-05-05 15:05:00,
2013-05-05 11:10:00,67.0,50.3,29.92,ENE,61,0.0,2.0,55,0.00,,---,0.00,VWS V14.01,2013-05-05 15:10:00,
2013-05-05 11:15:00,67.4,50.7,29.92,ENE,64,0.0,1.0,55,0.00,,---,0.00,VWS V14.01,2013-05-05 15:15:00,
2013-05-05 11:20:00,68.1,50.8,29.92,ENE,61,0.0,1.0,54,0.00,,---,0.00,VWS V14.01,2013-05-05 15:20:00,
2013-05-05 11:25:00,68.6,50.3,29.92,ESE,122,3.0,5.0,52,0.00,,---,0.00,VWS V14.01,2013-05-05 15:25:00,
2013-05-05 11:30:00,68.3,50.0,29.92,SE,124,3.0,6.0,52,0.00,,---,0.00,VWS V14.01,2013-05-05 15:30:00,
2013-05-05 11:35:00,68.5,49.2,29.92,East,84,3.0,4.0,50,0.00,,---,0.00,VWS V14.01,2013-05-05 15:35:00,
2013-05-05 11:40:00,68.5,48.6,29.92,East,91,0.0,6.0,49,0.00,,---,0.00,VWS V14.01,2013-05-05 15:40:00,
2013-05-05 11:45:00,69.2,49.2,29.92,East,86,2.0,2.0,49,0.00,,---,0.00,VWS V14.01,2013-05-05 15:45:00,
2013-05-05 11:50:00,69.4,48.9,29.92,East,82,1.0,2.0,48,0.00,,---,0.00,VWS V14.01,2013-05-05 15:50:00,
2013-05-05 11:55:00,69.8,49.8,29.92,East,81,1.0,2.0,49,0.00,,---,0.00,VWS V14.01,2013-05-05 15:55:00,
2013-05-05 12:00:00,70.1,49.5,29.92,ENE,73,0.0,3.0,48,0.00,,---,0.00,VWS V14.01,2013-05-05 16:00:00,
2013-05-05 12:05:00,70.3,49.1,29.91,ESE,106,2.0,3.0,47,0.00,,---,0.00,VWS V14.01,2013-05-05 16:05:00,
2013-05-05 12:10:00,70.1,48.4,29.91,ENE,68,1.0,4.0,46,0.00,,---,0.00,VWS V14.01,2013-05-05 16:10:00,
2013-05-05 12:15:00,70.4,50.3,29.91,East,84,0.0,3.0,49,0.00,,---,0.00,VWS V14.01,2013-05-05 16:15:00,
2013-05-05 12:20:00,70.6,50.0,29.91,East,79,0.0,2.0,48,0.00,,---,0.00,VWS V14.01,2013-05-05 16:20:00,
2013-05-05 12:25:00,71.1,49.9,29.91,East,89,0.0,2.0,47,0.00,,---,0.00,VWS V14.01,2013-05-05 16:25:00,
2013-05-05 12:30:00,70.9,49.7,29.91,East,91,1.0,2.0,47,0.00,,---,0.00,VWS V14.01,2013-05-05 16:30:00,
2013-05-05 12:35:00,70.3,49.1,29.91,East,99,3.0,9.0,47,0.00,,---,0.00,VWS V14.01,2013-05-05 16:35:00,
2013-05-05 12:40:00,70.0,48.3,29.91,East,79,0.0,4.0,46,0.00,,---,0.00,VWS V14.01,2013-05-05 16:40:00,
2013-05-05 12:45:00,69.7,47.4,29.91,ENE,73,0.0,5.0,45,0.00,,---,0.00,VWS V14.01,2013-05-05 16:45:00,
2013-05-05 12:50:00,69.5,47.8,29.90,ENE,58,1.0,7.0,46,0.00,,---,0.00,VWS V14.01,2013-05-05 16:50:00,
2013-05-05 12:55:00,69.8,48.7,29.90,East,88,3.0,7.0,47,0.00,,---,0.00,VWS V14.01,2013-05-05 16:55:00,
2013-05-05 13:00:00,70.0,47.7,29.90,ENE,72,3.0,10.0,45,0.00,,---,0.00,VWS V14.01,2013-05-05 17:00:00,
2013-05-05 13:05:00,70.1,47.2,29.89,East,84,5.0,7.0,44,0.00,,---,0.00,VWS V14.01,2013-05-05 17:05:00,
2013-05-05 13:10:00,70.2,47.9,29.89,ENE,75,3.0,6.0,45,0.00,,---,0.00,VWS V14.01,2013-05-05 17:10:00,
2013-05-05 13:15:00,71.3,48.3,29.89,East,89,0.0,4.0,44,0.00,,---,0.00,VWS V14.01,2013-05-05 17:15:00,
2013-05-05 13:20:00,72.2,49.7,29.89,ENE,68,0.0,4.0,45,0.00,,---,0.00,VWS V14.01,2013-05-05 17:20:00,
2013-05-05 13:25:00,71.5,49.1,29.89,East,79,0.0,2.0,45,0.00,,---,0.00,VWS V14.01,2013-05-05 17:25:00,
2013-05-05 13:30:00,71.0,48.0,29.89,East,79,4.0,7.0,44,0.00,,---,0.00,VWS V14.01,2013-05-05 17:30:00,
2013-05-05 13:35:00,70.6,48.8,29.89,ESE,103,2.0,7.0,46,0.00,,---,0.00,VWS V14.01,2013-05-05 17:35:00,
2013-05-05 13:40:00,71.8,48.7,29.89,East,94,3.0,10.0,44,0.00,,---,0.00,VWS V14.01,2013-05-05 17:40:00,
2013-05-05 13:45:00,72.7,48.9,29.89,East,99,5.0,10.0,43,0.00,,---,0.00,VWS V14.01,2013-05-05 17:45:00,
2013-05-05 13:50:00,73.1,48.7,29.88,East,101,6.0,7.0,42,0.00,,---,0.00,VWS V14.01,2013-05-05 17:50:00,
2013-05-05 13:55:00,72.9,49.1,29.88,ESE,121,10.0,10.0,43,0.00,,---,0.00,VWS V14.01,2013-05-05 17:55:00,
2013-05-05 14:00:00,72.4,46.7,29.88,East,86,3.0,9.0,40,0.00,,---,0.00,VWS V14.01,2013-05-05 18:00:00,
2013-05-05 14:05:00,72.8,49.6,29.88,East,87,2.0,5.0,44,0.00,,---,0.00,VWS V14.01,2013-05-05 18:05:00,
2013-05-05 14:10:00,72.6,47.6,29.88,ESE,111,1.0,7.0,41,0.00,,---,0.00,VWS V14.01,2013-05-05 18:10:00,
2013-05-05 14:15:00,72.5,46.8,29.88,East,83,5.0,7.0,40,0.00,,---,0.00,VWS V14.01,2013-05-05 18:15:00,
2013-05-05 14:20:00,71.6,47.3,29.88,East,86,1.0,8.0,42,0.00,,---,0.00,VWS V14.01,2013-05-05 18:20:00,
2013-05-05 14:25:00,71.1,47.5,29.88,East,93,3.0,10.0,43,0.00,,---,0.00,VWS V14.01,2013-05-05 18:25:00,
2013-05-05 14:30:00,71.6,47.3,29.88,East,89,3.0,10.0,42,0.00,,---,0.00,VWS V14.01,2013-05-05 18:30:00,
2013-05-05 14:35:00,72.3,49.8,29.88,East,83,0.0,7.0,45,0.00,,---,0.00,VWS V14.01,2013-05-05 18:35:00,
2013-05-05 14:40:00,73.2,47.5,29.88,East,92,5.0,7.0,40,0.00,,---,0.00,VWS V14.01,2013-05-05 18:40:00,
2013-05-05 14:45:00,73.2,48.8,29.88,East,97,2.0,6.0,42,0.00,,---,0.00,VWS V14.01,2013-05-05 18:45:00,
2013-05-05 14:50:00,73.7,47.9,29.87,East,88,5.0,6.0,40,0.00,,---,0.00,VWS V14.01,2013-05-05 18:50:00,
2013-05-05 14:55:00,73.0,47.9,29.87,ESE,110,4.0,5.0,41,0.00,,---,0.00,VWS V14.01,2013-05-05 18:55:00,
2013-05-05 15:00:00,73.4,48.9,29.87,ESE,105,4.0,8.0,42,0.00,,---,0.00,VWS V14.01,2013-05-05 19:00:00,
2013-05-05 15:05:00,73.8,47.3,29.87,ENE,75,2.0,7.0,39,0.00,,---,0.00,VWS V14.01,2013-05-05 19:05:00,
2013-05-05 15:10:00,72.8,47.1,29.87,ESE,110,3.0,7.0,40,0.00,,---,0.00,VWS V14.01,2013-05-05 19:10:00,
2013-05-05 15:15:00,72.5,47.5,29.87,ESE,112,2.0,6.0,41,0.00,,---,0.00,VWS V14.01,2013-05-05 19:15:00,
2013-05-05 15:20:00,73.0,49.2,29.88,East,79,1.0,3.0,43,0.00,,---,0.00,VWS V14.01,2013-05-05 19:20:00,
2013-05-05 15:25:00,73.1,47.4,29.88,East,82,1.0,5.0,40,0.00,,---,0.00,VWS V14.01,2013-05-05 19:25:00,
2013-05-05 15:30:00,72.9,49.1,29.88,ESE,107,0.0,3.0,43,0.00,,---,0.00,VWS V14.01,2013-05-05 19:30:00,
2013-05-05 15:35:00,73.7,48.6,29.87,ESE,113,3.0,4.0,41,0.00,,---,0.00,VWS V14.01,2013-05-05 19:35:00,
2013-05-05 15:40:00,73.7,47.9,29.87,ENE,77,5.0,7.0,40,0.00,,---,0.00,VWS V14.01,2013-05-05 19:40:00,
2013-05-05 15:45:00,72.8,47.1,29.87,ENE,72,2.0,7.0,40,0.00,,---,0.00,VWS V14.01,2013-05-05 19:45:00,
2013-05-05 15:50:00,72.0,46.4,29.87,East,96,3.0,5.0,40,0.00,,---,0.00,VWS V14.01,2013-05-05 19:50:00,
2013-05-05 15:55:00,71.3,47.7,29.87,East,99,0.0,5.0,43,0.00,,---,0.00,VWS V14.01,2013-05-05 19:55:00,
2013-05-05 16:00:00,71.2,46.3,29.87,ESE,105,4.0,4.0,41,0.00,,---,0.00,VWS V14.01,2013-05-05 20:00:00,
2013-05-05 16:05:00,71.1,46.2,29.86,East,101,1.0,6.0,41,0.00,,---,0.00,VWS V14.01,2013-05-05 20:05:00,
2013-05-05 16:10:00,71.2,46.3,29.86,SE,136,2.0,6.0,41,0.00,,---,0.00,VWS V14.01,2013-05-05 20:10:00,
2013-05-05 16:15:00,71.2,46.3,29.86,East,99,0.0,4.0,41,0.00,,---,0.00,VWS V14.01,2013-05-05 20:15:00,
2013-05-05 16:20:00,71.6,47.3,29.86,East,100,0.0,2.0,42,0.00,,---,0.00,VWS V14.01,2013-05-05 20:20:00,
2013-05-05 16:25:00,71.8,47.5,29.86,ESE,116,2.0,3.0,42,0.00,,---,0.00,VWS V14.01,2013-05-05 20:25:00,
2013-05-05 16:30:00,71.7,46.8,29.86,East,95,1.0,4.0,41,0.00,,---,0.00,VWS V14.01,2013-05-05 20:30:00,
2013-05-05 16:35:00,71.4,47.1,29.86,ESE,113,0.0,5.0,42,0.00,,---,0.00,VWS V14.01,2013-05-05 20:35:00,
2013-05-05 16:40:00,71.8,47.5,29.86,ESE,113,1.0,4.0,42,0.00,,---,0.00,VWS V14.01,2013-05-05 20:40:00,
2013-05-05 16:45:00,72.1,46.5,29.86,East,88,0.0,3.0,40,0.00,,---,0.00,VWS V14.01,2013-05-05 20:45:00,
2013-05-05 16:50:00,71.8,46.2,29.86,East,94,1.0,2.0,40,0.00,,---,0.00,VWS V14.01,2013-05-05 20:50:00,
2013-05-05 16:55:00,71.9,44.2,29.86,East,79,4.0,4.0,37,0.00,,---,0.00,VWS V14.01,2013-05-05 20:55:00,
2013-05-05 17:00:00,72.0,44.3,29.86,East,84,0.0,2.0,37,0.00,,---,0.00,VWS V14.01,2013-05-05 21:00:00,
2013-05-05 17:05:00,72.1,44.4,29.86,East,81,2.0,4.0,37,0.00,,---,0.00,VWS V14.01,2013-05-05 21:05:00,
2013-05-05 17:10:00,71.9,45.6,29.86,East,100,2.0,4.0,39,0.00,,---,0.00,VWS V14.01,2013-05-05 21:10:00,
2013-05-05 17:15:00,71.4,45.2,29.86,East,100,2.0,5.0,39,0.00,,---,0.00,VWS V14.01,2013-05-05 21:15:00,
2013-05-05 17:20:00,71.2,45.7,29.86,East,100,2.0,6.0,40,0.00,,---,0.00,VWS V14.01,2013-05-05 21:20:00,
2013-05-05 17:25:00,71.0,46.1,29.86,East,93,2.0,5.0,41,0.00,,---,0.00,VWS V14.01,2013-05-05 21:25:00,
2013-05-05 17:30:00,70.9,46.0,29.86,East,82,1.0,7.0,41,0.00,,---,0.00,VWS V14.01,2013-05-05 21:30:00,
2013-05-05 17:35:00,70.9,46.0,29.86,East,84,3.0,4.0,41,0.00,,---,0.00,VWS V14.01,2013-05-05 21:35:00,
2013-05-05 17:40:00,70.9,47.3,29.86,East,86,0.0,2.0,43,0.00,,---,0.00,VWS V14.01,2013-05-05 21:40:00,
2013-05-05 17:45:00,71.0,47.4,29.86,ESE,107,0.0,2.0,43,0.00,,---,0.00,VWS V14.01,2013-05-05 21:45:00,
2013-05-05 17:50:00,70.9,46.7,29.86,East,83,1.0,2.0,42,0.00,,---,0.00,VWS V14.01,2013-05-05 21:50:00,
2013-05-05 17:55:00,70.9,47.9,29.86,ENE,77,2.0,2.0,44,0.00,,---,0.00,VWS V14.01,2013-05-05 21:55:00,
2013-05-05 18:00:00,70.7,47.1,29.86,East,85,1.0,4.0,43,0.00,,---,0.00,VWS V14.01,2013-05-05 22:00:00,
2013-05-05 18:05:00,70.3,46.2,29.87,East,83,0.0,5.0,42,0.00,,---,0.00,VWS V14.01,2013-05-05 22:05:00,
2013-05-05 18:10:00,70.2,46.1,29.87,ESE,112,2.0,4.0,42,0.00,,---,0.00,VWS V14.01,2013-05-05 22:10:00,
2013-05-05 18:15:00,70.2,46.7,29.87,ENE,75,0.0,3.0,43,0.00,,---,0.00,VWS V14.01,2013-05-05 22:15:00,
2013-05-05 18:20:00,70.4,47.5,29.86,East,81,0.0,1.0,44,0.00,,---,0.00,VWS V14.01,2013-05-05 22:20:00,
2013-05-05 18:25:00,70.6,47.0,29.86,East,86,1.0,2.0,43,0.00,,---,0.00,VWS V14.01,2013-05-05 22:25:00,
2013-05-05 18:29:00,70.5,47.0,29.86,East,94,1.0,3.0,43,0.00,,---,0.00,VWS V14.01,2013-05-05 22:29:00,
2013-05-05 18:35:00,70.4,46.2,29.86,ESE,105,2.0,4.0,42,0.00,,---,0.00,VWS V14.01,2013-05-05 22:35:00,
2013-05-05 18:40:00,70.5,47.0,29.86,ESE,105,0.0,1.0,43,0.00,,---,0.00,VWS V14.01,2013-05-05 22:40:00,
2013-05-05 18:45:00,70.7,47.1,29.86,East,94,2.0,4.0,43,0.00,,---,0.00,VWS V14.01,2013-05-05 22:45:00,
2013-05-05 18:50:00,70.6,47.0,29.86,East,100,0.0,3.0,43,0.00,,---,0.00,VWS V14.01,2013-05-05 22:50:00,
2013-05-05 18:54:00,70.5,47.0,29.86,East,98,0.0,1.0,43,0.00,,---,0.00,VWS V14.01,2013-05-05 22:54:00,
2013-05-05 18:59:00,70.6,47.0,29.86,East,98,0.0,2.0,43,0.00,,---,0.00,VWS V14.01,2013-05-05 22:59:00,
2013-05-05 19:04:00,70.7,47.1,29.86,East,96,0.0,2.0,43,0.00,,---,0.00,VWS V14.01,2013-05-05 23:04:00,
2013-05-05 19:09:00,70.7,47.1,29.86,East,96,0.0,1.0,43,0.00,,---,0.00,VWS V14.01,2013-05-05 23:09:00,
2013-05-05 19:14:00,70.8,47.8,29.86,East,86,1.0,3.0,44,0.00,,---,0.00,VWS V14.01,2013-05-05 23:14:00,
2013-05-05 19:19:00,70.8,46.6,29.86,East,85,1.0,2.0,42,0.00,,---,0.00,VWS V14.01,2013-05-05 23:19:00,
2013-05-05 19:24:00,70.8,47.2,29.86,ESE,109,0.0,3.0,43,0.00,,---,0.00,VWS V14.01,2013-05-05 23:24:00,
2013-05-05 19:29:00,70.7,46.5,29.86,East,95,0.0,2.0,42,0.00,,---,0.00,VWS V14.01,2013-05-05 23:29:00,
2013-05-05 19:34:00,70.5,47.0,29.86,East,94,0.0,1.0,43,0.00,,---,0.00,VWS V14.01,2013-05-05 23:34:00,
2013-05-05 19:39:00,70.3,46.2,29.86,East,79,0.0,2.0,42,0.00,,---,0.00,VWS V14.01,2013-05-05 23:39:00,
2013-05-05 19:44:00,69.9,46.4,29.86,East,79,0.0,1.0,43,0.00,,---,0.00,VWS V14.01,2013-05-05 23:44:00,
2013-05-05 19:49:00,69.4,47.7,29.86,East,79,0.0,0.0,46,0.00,,---,0.00,VWS V14.01,2013-05-05 23:49:00,
2013-05-05 19:54:00,69.2,46.4,29.86,East,79,0.0,1.0,44,0.00,,---,0.00,VWS V14.01,2013-05-05 23:54:00,
2013-05-05 19:59:00,69.0,46.2,29.86,East,79,1.0,1.0,44,0.00,,---,0.00,VWS V14.01,2013-05-05 23:59:00,
2013-05-05 20:04:00,68.8,46.0,29.86,East,88,0.0,4.0,44,0.00,,---,0.00,VWS V14.01,2013-05-06 00:04:00,
2013-05-05 20:09:00,68.6,46.4,29.87,ESE,116,0.0,2.0,45,0.00,,---,0.00,VWS V14.01,2013-05-06 00:09:00,
2013-05-05 20:14:00,68.3,46.7,29.87,East,87,0.0,2.0,46,0.00,,---,0.00,VWS V14.01,2013-05-06 00:14:00,
2013-05-05 20:19:00,68.0,46.5,29.88,East,90,0.0,2.0,46,0.00,,---,0.00,VWS V14.01,2013-05-06 00:19:00,
2013-05-05 20:24:00,67.7,45.0,29.88,East,101,1.0,2.0,44,0.00,,---,0.00,VWS V14.01,2013-05-06 00:24:00,
2013-05-05 20:29:00,67.4,44.8,29.88,East,94,0.0,2.0,44,0.00,,---,0.00,VWS V14.01,2013-05-06 00:29:00,
2013-05-05 20:34:00,67.0,44.4,29.88,East,86,0.0,2.0,44,0.00,,---,0.00,VWS V14.01,2013-05-06 00:34:00,
2013-05-05 20:39:00,66.7,44.1,29.88,East,84,0.0,2.0,44,0.00,,---,0.00,VWS V14.01,2013-05-06 00:39:00,
2013-05-05 20:44:00,66.3,43.8,29.88,East,92,0.0,1.0,44,0.00,,---,0.00,VWS V14.01,2013-05-06 00:44:00,
2013-05-05 20:49:00,66.0,43.5,29.88,East,92,0.0,1.0,44,0.00,,---,0.00,VWS V14.01,2013-05-06 00:49:00,
2013-05-05 20:54:00,65.6,44.3,29.88,East,92,0.0,0.0,46,0.00,,---,0.00,VWS V14.01,2013-05-06 00:54:00,
2013-05-05 20:59:00,64.8,45.2,29.88,East,92,0.0,0.0,49,0.00,,---,0.00,VWS V14.01,2013-05-06 00:59:00,
2013-05-05 21:04:00,64.7,44.6,29.88,East,92,0.0,1.0,48,0.00,,---,0.00,VWS V14.01,2013-05-06 01:04:00,
2013-05-05 21:09:00,64.8,44.1,29.88,East,92,0.0,1.0,47,0.00,,---,0.00,VWS V14.01,2013-05-06 01:09:00,
2013-05-05 21:14:00,64.7,44.6,29.88,East,92,0.0,0.0,48,0.00,,---,0.00,VWS V14.01,2013-05-06 01:14:00,
2013-05-05 21:19:00,64.1,44.6,29.88,East,92,0.0,0.0,49,0.00,,---,0.00,VWS V14.01,2013-05-06 01:19:00,
2013-05-05 21:24:00,64.0,44.5,29.88,East,91,0.0,1.0,49,0.00,,---,0.00,VWS V14.01,2013-05-06 01:24:00,
2013-05-05 21:29:00,64.0,44.5,29.88,East,92,0.0,1.0,49,0.00,,---,0.00,VWS V14.01,2013-05-06 01:29:00,
2013-05-05 21:34:00,64.0,43.9,29.88,East,92,0.0,1.0,48,0.00,,---,0.00,VWS V14.01,2013-05-06 01:34:00,
2013-05-05 21:39:00,63.9,44.4,29.89,East,91,0.0,0.0,49,0.00,,---,0.00,VWS V14.01,2013-05-06 01:39:00,
2013-05-05 21:44:00,63.6,44.1,29.89,East,92,0.0,0.0,49,0.00,,---,0.00,VWS V14.01,2013-05-06 01:44:00,
2013-05-05 21:49:00,63.8,43.8,29.89,East,91,0.0,0.0,48,0.00,,---,0.00,VWS V14.01,2013-05-06 01:49:00,
2013-05-05 21:54:00,64.0,43.4,29.89,East,91,0.0,1.0,47,0.00,,---,0.00,VWS V14.01,2013-05-06 01:54:00,
2013-05-05 21:59:00,63.8,43.8,29.89,East,92,0.0,1.0,48,0.00,,---,0.00,VWS V14.01,2013-05-06 01:59:00,
2013-05-05 22:04:00,63.7,43.7,29.89,East,91,0.0,0.0,48,0.00,,---,0.00,VWS V14.01,2013-05-06 02:04:00,
2013-05-05 22:09:00,63.6,44.1,29.90,East,92,0.0,1.0,49,0.00,,---,0.00,VWS V14.01,2013-05-06 02:09:00,
2013-05-05 22:14:00,63.5,44.0,29.90,East,92,0.0,0.0,49,0.00,,---,0.00,VWS V14.01,2013-05-06 02:14:00,
2013-05-05 22:19:00,63.2,44.3,29.90,East,92,0.0,0.0,50,0.00,,---,0.00,VWS V14.01,2013-05-06 02:19:00,
2013-05-05 22:24:00,63.2,43.7,29.90,East,92,0.0,1.0,49,0.00,,---,0.00,VWS V14.01,2013-05-06 02:24:00,
2013-05-05 22:29:00,63.3,43.8,29.90,East,92,0.0,1.0,49,0.00,,---,0.00,VWS V14.01,2013-05-06 02:29:00,
2013-05-05 22:34:00,63.5,42.9,29.90,East,92,0.0,0.0,47,0.00,,---,0.00,VWS V14.01,2013-05-06 02:34:00,
2013-05-05 22:39:00,63.5,43.5,29.90,East,91,0.0,1.0,48,0.00,,---,0.00,VWS V14.01,2013-05-06 02:39:00,
2013-05-05 22:44:00,63.6,43.0,29.90,East,92,0.0,1.0,47,0.00,,---,0.00,VWS V14.01,2013-05-06 02:44:00,
2013-05-05 22:49:00,63.7,43.1,29.90,East,92,0.0,1.0,47,0.00,,---,0.00,VWS V14.01,2013-05-06 02:49:00,
2013-05-05 22:54:00,63.7,43.1,29.90,East,92,0.0,0.0,47,0.00,,---,0.00,VWS V14.01,2013-05-06 02:54:00,
2013-05-05 22:59:00,63.6,43.0,29.90,East,91,0.0,1.0,47,0.00,,---,0.00,VWS V14.01,2013-05-06 02:59:00,
2013-05-05 23:04:00,63.6,42.5,29.90,East,92,0.0,0.0,46,0.00,,---,0.00,VWS V14.01,2013-05-06 03:04:00,
2013-05-05 23:09:00,63.6,43.0,29.90,East,92,0.0,0.0,47,0.00,,---,0.00,VWS V14.01,2013-05-06 03:09:00,
2013-05-05 23:14:00,63.4,42.8,29.90,East,92,0.0,0.0,47,0.00,,---,0.00,VWS V14.01,2013-05-06 03:14:00,
2013-05-05 23:19:00,63.1,43.7,29.90,East,92,0.0,0.0,49,0.00,,---,0.00,VWS V14.01,2013-05-06 03:19:00,
2013-05-05 23:24:00,62.6,43.7,29.89,East,92,0.0,0.0,50,0.00,,---,0.00,VWS V14.01,2013-05-06 03:24:00,
2013-05-05 23:29:00,62.2,43.9,29.89,East,92,0.0,0.0,51,0.00,,---,0.00,VWS V14.01,2013-05-06 03:29:00,
2013-05-05 23:34:00,61.9,43.6,29.89,East,92,0.0,0.0,51,0.00,,---,0.00,VWS V14.01,2013-05-06 03:34:00,
2013-05-05 23:39:00,61.6,44.8,29.89,East,91,0.0,0.0,54,0.00,,---,0.00,VWS V14.01,2013-05-06 03:39:00,
2013-05-05 23:44:00,61.2,45.4,29.89,East,92,0.0,0.0,56,0.00,,---,0.00,VWS V14.01,2013-05-06 03:44:00,
2013-05-05 23:49:00,61.0,44.7,29.89,East,92,0.0,0.0,55,0.00,,---,0.00,VWS V14.01,2013-05-06 03:49:00,
2013-05-05 23:54:00,61.0,44.2,29.89,East,92,0.0,0.0,54,0.00,,---,0.00,VWS V14.01,2013-05-06 03:54:00,
2013-05-05 23:59:00,61.1,43.9,29.89,East,92,0.0,1.0,53,0.00,,---,0.00,VWS V14.01,2013-05-06 03:59:00,